User: anonymous   Login
Location: Eschertshofen
(49.3064°N, 11.5756°E)
Time: 02:24:40
(UTC+00:00)
Language:

ISS - Orbit

View from above orbital plane
View from above orbital plane
View from above satellite
View from above satellite

Ground track
Ground track

The orbit data is extracted from the following two-line orbital elements,

1 25544U 98067A   20337.63956113  .00016717  00000-0  10270-3 0  9062
2 25544  51.6433 234.9674 0001659  92.1374 267.9966 15.49124646 18125
Epoch (UTC): 02 December 2020 15:20:58
Eccentricity: 0.0001659
inclination: 51.6433°
perigee height: 418 km
apogee height: 420 km
right ascension of ascending node: 234.9674°
argument of perigee: 92.1374°
revolutions per day: 15.49124646
mean anomaly at epoch: 267.9966°
orbit number at epoch: 1812

The dashed part of the orbit path shows where the satellite is in the earth's shadow,  

DLR